EW7996 King George VA US current weather conditions

sailwx.info

Wind from 045

Air temperature -1.1° C
Dewpoint -5.0° C

Last reported at 2019-Dec-13 02:00 UTC.
Time now 2019-Dec-13 02:43 UTC

Location: N 38°16' W 077°19'.
View on Google Maps.

See reports from other nearby stations

  
Tides and Currents Weather Stations Pressure Air Temp Water Temp Dewpoint Dewpoint Depression Visibility Wind Speed Wind Dir Waves Ship Positions
date/time (UTC)wind fromknots sea level pressurealtimeterstation pressurevisibilityair tempwater tempwave heightnotes
2019-Dec-13 02:00 045 -1.1
2019-Dec-13 01:45 045 -1.1
2019-Dec-13 01:30 045 -1.1
2019-Dec-13 01:15 045 -1.1
2019-Dec-13 01:00 045 -1.7
2019-Dec-13 00:45 045 -1.7
2019-Dec-13 00:30 045 -1.1
2019-Dec-13 00:15 045 -0.6
2019-Dec-13 00:00 045 -0.0
2019-Dec-12 23:45 045 -0.0
2019-Dec-12 23:30 045 0.6
2019-Dec-12 23:15 045 0.6
2019-Dec-12 23:00 045 0.6
2019-Dec-12 22:45 044 1.1
2019-Dec-12 22:32 045 1.1
2019-Dec-12 22:17 045 1.7
2019-Dec-12 22:02 071 1.7
2019-Dec-12 21:47 069 2.2
2019-Dec-12 21:32 069 2.8
2019-Dec-12 21:17 054 3.3
2019-Dec-12 21:02 090 3.9
2019-Dec-12 20:50 065 3.9
2019-Dec-12 20:31 078 3.9
2019-Dec-12 20:17 111 3.9
2019-Dec-12 20:01 120 3.9
2019-Dec-12 19:49 106 3.9
2019-Dec-12 19:33 095 4.4
2019-Dec-12 19:16 116 4.4
2019-Dec-12 19:02 050 4.4
2019-Dec-12 18:47 046 3.9
2019-Dec-12 18:33 142 3.9
2019-Dec-12 18:17 038 3.9
2019-Dec-12 18:02 107 3.9
2019-Dec-12 17:47 040 3.9
2019-Dec-12 17:32 052 3.3
2019-Dec-12 17:17 039 3.3
2019-Dec-12 17:01 176 3.3
2019-Dec-12 16:47 121 2.8
2019-Dec-12 16:31 005 2.8
2019-Dec-12 16:16 134 2.2
2019-Dec-12 16:01 051 2.2
2019-Dec-12 15:46 005 2.2
2019-Dec-12 15:31 040 1.7
2019-Dec-12 15:15 044 1.7
2019-Dec-12 15:00 080 1.1
2019-Dec-12 14:46 028 1.1
2019-Dec-12 14:31 076 0.6
2019-Dec-12 14:16 058 0.6
2019-Dec-12 14:00 076 -0.0
2019-Dec-12 13:46 057 -0.0
2019-Dec-12 13:30 067 -0.6
2019-Dec-12 13:15 347 -1.1
2019-Dec-12 13:00 089 -2.2
2019-Dec-12 12:45 331 -2.8
2019-Dec-12 12:30 273 -3.3
2019-Dec-12 12:15 275 -3.3
2019-Dec-12 12:00 276 -2.8
2019-Dec-12 11:45 169 -2.2
2019-Dec-12 11:30 171 -2.2
2019-Dec-12 11:16 259 -2.8
2019-Dec-12 11:00 268 -2.8
2019-Dec-12 10:45 273 -3.3
2019-Dec-12 10:32 275 -2.8
2019-Dec-12 10:17 275 -2.8
2019-Dec-12 10:02 285 -2.2
2019-Dec-12 09:46 285 -1.7
2019-Dec-12 09:30 252 -0.6
2019-Dec-12 09:15 259 -0.6
2019-Dec-12 09:02 261 -0.6
2019-Dec-12 08:45 269 -0.6
2019-Dec-12 08:31 261 -0.6
2019-Dec-12 08:15 279 -0.0
2019-Dec-12 08:00 265 -0.0
2019-Dec-12 07:45 279 -0.0
2019-Dec-12 07:30 306 -0.0
2019-Dec-12 07:00 026 -0.0
2019-Dec-12 06:45 279 -0.0
2019-Dec-12 06:30 263 -0.0
2019-Dec-12 06:15 275 -0.0
2019-Dec-12 06:00 259 -0.0
2019-Dec-12 05:45 269 -0.0
2019-Dec-12 05:32 263 0.6
2019-Dec-12 05:18 259 0.6
2019-Dec-12 05:03 266 0 gusting 6 0.6
2019-Dec-12 04:47 264 0.6
2019-Dec-12 04:32 285 0.6
2019-Dec-12 04:18 267 0.6
2019-Dec-12 04:02 275 0.6
2019-Dec-12 03:46 268 0.6
2019-Dec-12 03:34 266 0.6
2019-Dec-12 03:16 261 0.6
2019-Dec-12 03:01 281 1.1
2019-Dec-12 02:46 306 1.1
2019-Dec-12 02:32 306 0.6
2019-Dec-12 02:16 283 -0.0
2019-Dec-12 02:00 261 -1.7
2019-Dec-12 01:45 244 -2.2
2019-Dec-12 01:31 220 -2.2
2019-Dec-12 01:16 220 -1.7
2019-Dec-12 01:01 220 -1.7
2019-Dec-12 00:45 220 -1.1
2019-Dec-12 00:30 219 -1.1
2019-Dec-12 00:15 219 -1.1
2019-Dec-12 00:00 219 -0.6
2019-Dec-11 23:45 219 -0.0
2019-Dec-11 23:30 219 -0.0
2019-Dec-11 23:15 219 0.6
2019-Dec-11 23:00 219 1.1
2019-Dec-11 22:45 219 1.7
2019-Dec-11 22:30 219 2.2
2019-Dec-11 22:18 219 2.8
2019-Dec-11 22:01 219 3.9
2019-Dec-11 21:47 219 5.0
2019-Dec-11 21:33 231 5.0
2019-Dec-11 21:17 232 5.6
2019-Dec-11 21:05 240 5.6
2019-Dec-11 20:48 173 5.6
2019-Dec-11 20:32 219 5.6
2019-Dec-11 20:18 225 5.0
2019-Dec-11 20:02 254 5.0
2019-Dec-11 19:47 234 5.0
2019-Dec-11 19:32 196 5.0
2019-Dec-11 19:16 225 5.6
2019-Dec-11 19:01 248 5.6
2019-Dec-11 18:46 216 5.0
2019-Dec-11 18:32 233 0 gusting 7 5.6
2019-Dec-11 18:16 204 0 gusting 6 5.6
2019-Dec-11 18:01 234 5.0
2019-Dec-11 17:46 263 5.0
2019-Dec-11 17:31 265 4.4
2019-Dec-11 17:16 251 4.4
2019-Dec-11 17:01 242 3.9
2019-Dec-11 16:46 231 3.9
2019-Dec-11 16:31 270 3.9
2019-Dec-11 16:16 284 0 gusting 7 3.9
2019-Dec-11 16:02 256 1 gusting 8 3.3
2019-Dec-11 15:46 232 3.3
2019-Dec-11 15:31 293 1 gusting 10 2.8
2019-Dec-11 15:16 279 1 gusting 8 2.8
2019-Dec-11 15:01 272 1 gusting 7 2.8
2019-Dec-11 14:46 308 2.2
2019-Dec-11 14:31 267 0 gusting 7 2.2
2019-Dec-11 14:16 273 1.7
2019-Dec-11 14:00 270 1.1
2019-Dec-11 13:46 275 1.1
2019-Dec-11 13:30 265 0.6
2019-Dec-11 13:16 267 0.6
2019-Dec-11 13:00 300 0.6
2019-Dec-11 12:45 263 0.6
2019-Dec-11 12:30 290 0 gusting 7 0.6
2019-Dec-11 12:15 250 0.6
2019-Dec-11 12:00 281 0.6
2019-Dec-11 11:45 276 0.6
2019-Dec-11 11:30 250 0.6
2019-Dec-11 11:15 256 0.6
2019-Dec-11 11:00 265 0.6
2019-Dec-11 10:46 269 0.6
2019-Dec-11 10:31 252 0.6
2019-Dec-11 10:15 275 0.6
2019-Dec-11 10:00 275 0.6
2019-Dec-11 09:48 246 0.6
2019-Dec-11 09:32 298 0.6
2019-Dec-11 09:21 273 0.6
2019-Dec-11 09:03 276 0.6
2019-Dec-11 08:48 260 0.6
2019-Dec-11 08:31 292 0.6
2019-Dec-11 08:17 355 1.1
2019-Dec-11 08:04 259 1.1
2019-Dec-11 07:46 236 1.1
2019-Dec-11 07:33 229 1.1
2019-Dec-11 07:17 235 1.1
2019-Dec-11 07:01 298 1.1
2019-Dec-11 06:48 304 1.7
2019-Dec-11 06:32 273 1.7
2019-Dec-11 06:16 267 2.8
2019-Dec-11 06:01 269 3.3
2019-Dec-11 05:46 257 3.9
2019-Dec-11 05:32 263 3.9
2019-Dec-11 05:16 238 4.4
2019-Dec-11 05:00 317 5.0
2019-Dec-11 04:45 282 5.6
2019-Dec-11 04:31 336 5.6
2019-Dec-11 04:15 348 6.1
2019-Dec-11 04:00 254 6.7
2019-Dec-11 03:45 270 6.7
2019-Dec-11 03:30 263 7.2
2019-Dec-11 03:15 277 7.2
2019-Dec-11 03:05 283 7.2
2019-Dec-11 02:48 265 7.8
2019-Dec-11 02:32 271 7.8
2019-Dec-11 02:18 283 8.3
2019-Dec-11 02:02 254 8.9